Miscellaneous Local Product
Issued by NWS Hastings, NE

Home | Current Version | Previous Version | Graphics & Text | Print | Product List | Glossary On
Versions: 1 2 3 4 5 6 7 8 9 10 11 12 13 14 15 16 17 18 19 20 21 22 23 24 25 26 27 28 29 30 31 32 33 34 35 36 37 38 39 40 41 42 43 44 45 46 47 48 49 50
454
AXUS43 KGID 161602
MISGRI

GID CWA HOURLY WEATHER ROUNDUP
NATIONAL WEATHER SERVICE HASTINGS NE
1100 AM CDT MON OCT 16 2017

NOTE: "FAIR" INDICATES FEW OR NO CLOUDS BELOW 12,000 FEET WITH NO
SIGNIFICANT WEATHER AND/OR OBSTRUCTIONS TO VISIBILITY.

...SOUTH CENTRAL NEBRASKA...

CITY           SKY/WX    TMP DP  RH WIND       PRES   REMARKS
GRAND ISLAND   SUNNY     60  39  45 S10       30.27F
HASTINGS       SUNNY     59  35  40 S10       30.29F
KEARNEY        SUNNY     59  37  44 SW14      30.27F
ORD            SUNNY     58  34  40 SW8       30.22F
YORK           SUNNY     59  37  44 SW13      30.30F
AURORA         SUNNY     61  37  41 SW8       30.28F
LEXINGTON      SUNNY     61  36  40 SW6       30.26F
HEBRON         SUNNY     62  37  40 SW8       30.33F

...NEBRASKA PANHANDLE...

CITY           SKY/WX    TMP DP  RH WIND       PRES   REMARKS
CHADRON        SUNNY     60  26  27 SW12      30.16F
ALLIANCE       SUNNY     55  31  39 W7        30.21F
SCOTTSBLUFF    CLOUDY    47  32  56 VRB3      30.23F
SIDNEY         SUNNY     62  32  32 SW6       30.25F

...WESTERN AND NORTH CENTRAL NEBRASKA...

CITY           SKY/WX    TMP DP  RH WIND       PRES   REMARKS
VALENTINE      SUNNY     61  31  32 SW13      30.15F
AINSWORTH      SUNNY     59  33  37 SW13      30.17S
ONEILL         SUNNY     58  38  47 SW9       30.19F
BROKEN BOW     SUNNY     60  38  43 SW8       30.22F
IMPERIAL       SUNNY     57  33  40 SW8       30.26F
NORTH PLATTE   SUNNY     53  37  54 W5        30.25F
MCCOOK         SUNNY     53  36  52 SW8       30.27F

...EASTERN NEBRASKA...

CITY           SKY/WX    TMP DP  RH WIND       PRES   REMARKS
NORFOLK        SUNNY     60  36  40 S14G21    30.24F
TEKAMAH        SUNNY     61  36  39 S9        30.29F
COLUMBUS       SUNNY     61  38  42 S10       30.28F
ALBION         SUNNY     60  37  42 S9        30.25F
OMAHA EPPLEY   SUNNY     58  41  53 S8        30.32F
OFFUTT AFB     SUNNY     59  41  51 SE8       30.32F
MILLARD        SUNNY     62  40  45 S10       30.32S
LINCOLN        SUNNY     59  42  53 S10       30.33F
NEBRASKA CITY  SUNNY     60  38  44 S15       30.34S
BEATRICE       SUNNY     58  43  58 S8        30.34F
FALLS CITY     SUNNY     61  42  49 S10       30.35F

...NORTHERN KANSAS...

CITY           SKY/WX    TMP DP  RH WIND       PRES   REMARKS
GOODLAND       SUNNY     62  35  36 S10       30.28F
HILL CITY      SUNNY     64  35  34 SW14G23   30.32F
NORTON         SUNNY     64  30  27 S15       30.28F
PHILLIPSBURG   SUNNY     63  36  36 S9        30.31F
SMITH CENTER   SUNNY     57  37  47 S9        30.33F
HAYS           SUNNY     61  38  42 SW20      30.35F
RUSSELL        SUNNY     62  39  42 SW17      30.34F
CONCORDIA      SUNNY     61  39  44 SW10      30.35F
SALINA         SUNNY     62  42  47 S9        30.38F
TOPEKA         SUNNY     58  44  60 CALM      30.40S



USA.gov is the U.S. government's official web portal to all federal, state and local government web resources and services.